www.pogodaiklimat.ru

Погода и климат >> Архив погоды >> Россия >> Калмыкия >> Кетченеры


ПОГОДА в Кетченерах

  • Прогноз погоды в Кетченерах
  • Монитор погоды в Кетченерах
  • Климат города

АРХИВ ПОГОДЫ в Кетченерах

Время (UTC), дата Ветер
(напр.,м/с)
 
Видим.   Явления Облачность Т
(С)
Тd
(С)
f
(%)
Тe
(С)
Тes
(С)
Комфортность P
(гПа)
Po
(гПа)
Тmin
(С)
Tmax
(С)
R
(мм)
R24
(мм)
S
(см)
09 10.12 ЮВ 3 20 км 3/0
[Ac trans Ci fib]
+4.3 +0.1 74 +1 +3 1022.5 1015.3
15 10.12 ЮВ 4 500 м туман ?/? +0.9 +0.9 100 -5 -5 1021.7 1014.4 +4.9
21 10.12 В 3
{11}
500 м туман ?/? +0.3 +0.3 100 -5 -5 1020.6 1013.3
03 11.12 Ю 3 500 м туман ?/? +2.5 +2.5 100 -2 -2 1021.8 1014.5 -0.8
09 11.12 Ю 2 2000 м в посл. час ливневой дождь {туман} 10/10 600 м
[Cb calv]
+4.4 +4.4 100 +1 +1 1024.3 1017.0
15 11.12 З 1 20 км {туман} ясно -0.4 -2.1 88 -2 -2 1027.4 1020.0 +5.4 0.0
21 11.12 З 1 20 км ясно -0.1 -2.1 86 -2 -2 1028.1 1020.7
03 12.12 В 1 2000 м дымка 10/10 600 м
[Sc]
+0.3 -0.5 94 -2 -2 1027.0 1019.6 -1.3
09 12.12 В 1 10 км слабый ливневой дождь 10/10 300 м
[Cb calv]
+3.1 +1.2 87 +2 +2 1026.3 1019.0
15 12.12 Ю 3 10 км слабый ливневой дождь 10/10 300 м
[Cb calv]
+5.1 +3.0 86 +2 +2 1025.4 1018.2 +5.1 1
21 12.12 Ю 5 20 км 10/10 600 м
[Cb calv]
+6.0 +1.5 73 +2 +2 1024.0 1016.8
03 13.12 ЮВ 2 20 км 9/9 600 м
[Sc]
+6.2 +1.1 70 +4 +4 1023.1 1015.9 +4.6 0.0
09 13.12 ЮВ 3 20 км 9/0
[Ac trans]
+8.4 +3.6 72 +6 +7 1023.1 1015.9
15 13.12 ЮВ 7-12
{12}
4000 м дымка 10/0
[Ac trans]
+5.4 +4.7 95 -0 -0 1023.6 1016.4 +10.4
21 13.12 В 4 2000 м дымка 10/10 600 м
[Sc]
+3.6 +3.5 99 -1 -1 1023.7 1016.4
03 14.12 ЮВ 6
{11}
4000 м дымка 10/10 600 м
[Sc]
+4.3 +3.0 91 -1 -1 1023.6 1016.3 +2.3
09 14.12 В 7-12
{14}
20 км 10/10 600 м
[Cb calv]
+4.4 +2.4 87 -1 -1 1023.2 1015.9
15 14.12 В 7-13
{14}
20 км 10/10 600 м
[Sc]
+2.8 +0.1 82 -3 -3 1022.8 1015.5 +4.9
21 14.12 В 5-10
{11}
4000 м дымка 10/10 600 м
[Sc]
-0.9 -1.9 93 -7 -7 1022.2 1014.8
03 15.12 В 4
{11}
4000 м дымка 10/10 600 м
[Sc]
-0.8 -2.0 92 -7 -7 1022.8 1015.4 -1.2
09 15.12 В 5
{11}
2000 м слабый ливневой дождь 10/10 300 м
[Cb calv]
+0.3 +0.1 99 -6 -6 1022.8 1015.4
15 15.12 В 5 2000 м слабый ливневой дождь 10/10 300 м
[Cb calv]
+1.8 +1.7 99 -4 -4 1023.3 1016.0 +1.9 0.0
21 15.12 ЮВ 4 2000 м дымка 10/10 600 м
[Cb calv]
+1.0 +1.0 100 -5 -5 1024.1 1016.8
03 16.12 В 3 2000 м слабый ливневой дождь 10/10 300 м
[Cb calv]
+0.7 +0.7 100 -4 -4 1025.6 1018.2 +0.6 0.5
09 16.12 ЮВ 4 2000 м в посл. час туман 10/10 600 м
[Cb calv]
+2.2 +2.2 100 -3 -3 1025.3 1018.0
15 16.12 В 4 2000 м дымка 10/10 600 м
[Cb calv]
+3.0 +3.0 100 -2 -2 1026.6 1019.3 +3.7
21 16.12 В 3 1000 м дымка 10/10 600 м
[Sc]
+2.5 +2.5 100 -2 -2 1027.2 1019.9
03 17.12 В 5
{11}
2000 м дымка 10/10 600 м
[Cb calv]
+0.7 +0.7 100 -6 -6 1026.8 1019.4 +0.6

 

Местоположение метеостанции Кетченеры (Калмыкия, Россия): широта 47.32 долгота 44.57 высота над уровнем моря 58 м.

В архиве по умолчанию представлена погода в Кетченерах за последнюю неделю. Архивные данные за месяц целиком и за предыдущие месяцы, начиная с января 2011 года, Вы можете получить, выбрав интересующий диапазон дат из раскрывающегося списка и нажав кнопку "Ввод!".

Внимание! Время в таблицах - всемирное. Для получения местного времени необходимо прибавить поправку, которая в Кетченерах равна 3 ч.

Смотрите также архив погоды в соседних городах и на ближайших метеорологических станциях:

Погода в Малых Дербетах (Калмыкия, Россия) (69 км)
Погода в Элисте (Калмыкия, Россия) (107 км)
Погода в Ремонтном (Ростовская область, Россия) (108 км)
Погода в Котельниково (Волгоградская область, Россия) (112 км)
Погода в Юсте (Калмыкия, Россия) (134 км)
Погода в Яшкуле (Калмыкия, Россия) (140 км)
Погода в Черный Яр (Астраханская область, Россия) (143 км)
Погода в Волгограде город (Волгоградская область, Россия) (150 км)
Погода в Утте (Калмыкия, Россия) (153 км)
Погода в Нижнем Чире (Волгоградская область, Россия) (156 км)

Пояснения к столбцам:

Ветер - указаны скорость ветра в м/с - средняя за 10 мин, порывы в срок и между сроками (в фигурных скобках) и направление, откуда дует ветер: С - северный, СВ - северо-восточный, В - восточный, ЮВ - юго-восточный, Ю - южный, ЮЗ - юго-западный, З - западный, СЗ - северо-западный.
Видимость - горизонтальная дальность видимости в метрах или километрах. При видимости от 1 до 10 км при отсутствии осадков обычно наблюдается дымка, при ухудшении видимости до 1 км и менее - туман. В сухую погоду видимость может ухудшаться дымом, пылью или мглою.
Явления - указаны атмосферные явления, наблюдавшиеся в срок или в последний час перед сроком; фигурными скобками обозначены явления, наблюдавшиеся между сроками (за 1-3 часа до срока); квадратными скобками обозначены град или гололедные отложения с указанием их диаметра в мм.
Облачность - указаны через наклонную черту общая и нижняя облачность в баллах и высота нижней границы облаков в метрах; квадратными скобками обозначены формы облаков: Ci - перистые, Cs - перисто-слоистые, Cc - перисто-кучевые, Ac - высококучевые, As - высокослоистые, Sc - слоисто-кучевые, Ns - слоисто-дождевые, Cu - кучевые, Cb - кучево-дождевые. Подробнее классификацию облаков см. в Атласе облаков (PDF).
T - Температура воздуха - температура, измеренная на высоте 2 м над землей.
Td - Температура точки росы - температура, при понижении до которой содержащийся в воздухе водяной пар достигнет насыщения.
f - Относительная влажность воздуха - влажноcть воздуха, измеренная на высоте 2 м над землей.
Te - Эффективная температура - температура, которую ощущает одетый по сезону человек в тени. Характеристика душности погоды. При расчете учитывается влияние влажности воздуха и скорости ветра на теплоощущения человека.
Tes - Эффективная температура на солнце - температура, которую ощущает человек, с поправкой на солнечный нагрев. Характеристика знойности погоды. Зависит от высоты солнца над горизонтом, облачности и скорости ветра. Ночью, в пасмурную погоду, а также при ветре 12 м/с и более поправка равна нулю.
P - Атмосферное давление - приведенное к уровню моря атмосферное давление.
Po - Атмосферное давление - измеренное на уровне метеостанции атмосферное давление.
Tmin - Минимальная температура - минимум температуры воздуха на высоте 2 м над землей.
Tmax - Максимальная температура - максимум температуры воздуха на высоте 2 м над землей.
R - Количество осадков - Количество выпавших осадков за период времени, мм. При наведении курсора мыши на число - период времени, за который выпало указанное количество осадков.
R24 - Количество осадков - Количество выпавших осадков за 24 часа, мм.
S - Снежный покров - Высота снежного покрова, см. При наведении курсора мыши на число - состояние снежного покрова и степень покрытия местности в баллах.